Nome, AK

2:31 PM AKDT on September 24, 2017 (GMT -0800)
Nome

Weather History for PAOM - June, 2013

Change the Weather History Date:

Saturday, June 15, 2013

  Actual Average Record
Temperature  
Mean Temperature 47 °F 48 °F  
Max Temperature 50 °F 55 °F 79 °F (1969)
Min Temperature 43 °F 41 °F 27 °F (1987)
Degree Days  
Heating Degree Days 18 17  
Month to date heating degree days 339 290  
Since 1 June heating degree days 339 290  
Since 1 July heating degree days 14124 13474  
Cooling Degree Days 0 0  
Month to date cooling degree days 0 0  
Year to date cooling degree days 0 0  
Since 1 June cooling degree days 0 0  
Moisture  
Dew Point 46 °F    
Average Humidity 0    
Maximum Humidity 0    
Minimum Humidity 0    
Precipitation  
Precipitation 0.68 in 0.04 in 0.68 in (2013)
Month to date precipitation 1.28 0.44  
Year to date precipitation 5.53 4.58  
Snow  
Snow 0.00 in 0.00 in 0.00 in ()
Month to date snowfall 0.1 0.2  
Since 1 June snowfall 0.1 0.2  
Since 1 July snowfall 65.8 75.6  
Snow Depth 0.00 in    
Sea Level Pressure  
Sea Level Pressure 30.10 in    
Wind  
Wind Speed 9 mph (ESE)    
Max Wind Speed 24 mph    
Max Gust Speed 31 mph    
Visibility 3 miles    
Events Fog , Rain    
T = Trace of Precipitation, MM = Missing Value Source: NWS Daily Summary

Daily Weather History Graph

Daily Weather History Graph

Search for Another Location

Airport or City:

Trip Planner

Search our weather history database for the weather conditions in past years. The results will help you decide how hot, cold, wet, or windy it might be!

Date:

Astronomy

Jun. 15, 2013 Rise Set
Actual Time 4:21 AM AKDT 1:44 AM AKDT
Civil Twilight Sun does not set Sun does not set
Nautical Twilight Sun does not set Sun does not set
Astronomical Twilight Sun does not set Sun does not set
Moon 2:12 PM AKDT (6/15) 2:32 AM AKDT (6/15)
Length of Visible Light 24h 00m
Length of Day
21h 23m
Waxing Crescent, 41% of the Moon is Illuminated
Jun 15
Waxing Crescent
Jun 16
First Quarter
Jun 23
Full
Jun 29
Last Quarter
Jul 7
New

Hourly Weather History & Observations

Time (AKDT) Temp. Windchill Dew Point Humidity Pressure Visibility Wind Dir Wind Speed Gust Speed Precip Events Conditions
12:00 AM 46.4 °F - 44.6 °F 93% 30.16 in 5.0 mi Calm Calm - 0.00 in Rain Light Rain
12:53 AM 45.0 °F 42.6 °F 44.1 °F 97% 30.17 in 6.0 mi SE 4.6 mph - 0.04 in Rain Light Rain
1:00 AM 44.6 °F 42.2 °F 44.6 °F 100% 30.16 in 4.0 mi SE 4.6 mph - 0.01 in Rain Light Rain
1:04 AM 44.6 °F 42.2 °F 44.6 °F 100% 30.16 in 2.5 mi SE 4.6 mph - 0.02 in Rain Light Rain
1:18 AM 44.6 °F 42.2 °F 44.6 °F 100% 30.16 in 2.0 mi East 4.6 mph - 0.03 in Rain Light Rain
1:26 AM 44.6 °F 43.1 °F 44.6 °F 100% 30.16 in 3.0 mi East 3.5 mph - 0.03 in Rain Light Rain
1:53 AM 45.0 °F - 45.0 °F 100% 30.16 in 7.0 mi Calm Calm - 0.04 in Rain Light Rain
2:01 AM 46.4 °F 45.2 °F 44.6 °F 93% 30.16 in 6.0 mi East 3.5 mph - 0.00 in Rain Light Rain
2:53 AM 46.9 °F - 46.9 °F 100% 30.15 in 7.0 mi Calm Calm - 0.03 in Rain Light Rain
3:53 AM 46.9 °F - 46.0 °F 97% 30.14 in 3.0 mi East 4.6 mph - 0.04 in Rain Light Rain
4:53 AM 46.9 °F - 46.0 °F 97% 30.12 in 8.0 mi East 10.4 mph - 0.02 in Rain Light Rain
5:53 AM 46.9 °F - 46.9 °F 100% 30.10 in 8.0 mi East 10.4 mph - 0.05 in Rain Light Rain
6:53 AM 46.9 °F - 46.0 °F 97% 30.09 in 2.5 mi East 12.7 mph - 0.07 in Rain Light Rain
7:23 AM 46.4 °F 40.4 °F 46.4 °F 100% 30.08 in 4.0 mi East 13.8 mph - 0.05 in Rain Light Rain
7:53 AM 48.0 °F - 46.9 °F 96% 30.08 in 3.0 mi East 15.0 mph 23.0 mph 0.07 in Rain Rain
8:01 AM 46.4 °F 40.1 °F 46.4 °F 100% 30.08 in 2.5 mi ESE 15.0 mph - 0.02 in Rain Rain
8:20 AM 46.4 °F 39.2 °F 46.4 °F 100% 30.07 in 3.0 mi ESE 18.4 mph 26.5 mph 0.05 in Rain Light Rain
8:53 AM 46.0 °F 38.3 °F 46.0 °F 100% 30.06 in 3.0 mi ESE 20.7 mph - 0.07 in Rain Light Rain
9:53 AM 48.9 °F - 48.0 °F 97% 30.05 in 3.0 mi ESE 19.6 mph 28.8 mph 0.07 in Rain Light Rain
10:53 AM 48.0 °F - 46.9 °F 96% 30.03 in 3.0 mi ESE 20.7 mph 29.9 mph 0.07 in Rain Light Rain
11:53 AM 46.9 °F - 46.9 °F 100% 30.02 in 3.0 mi ESE 21.9 mph - 0.05 in Rain Light Rain
12:22 PM 48.2 °F - 48.2 °F 100% 30.01 in 1.8 mi ESE 21.9 mph 27.6 mph 0.02 in Rain Light Rain
12:53 PM 46.9 °F - 46.9 °F 100% 30.02 in 1.8 mi ESE 18.4 mph 26.5 mph 0.04 in Rain Light Rain
1:27 PM 46.4 °F 39.8 °F 46.4 °F 100% 30.02 in 1.2 mi ESE 16.1 mph - 0.00 in Rain Light Rain
1:53 PM 46.0 °F 39.6 °F 46.0 °F 100% 30.03 in 1.2 mi SE 15.0 mph - 0.03 in Rain Light Rain
2:02 PM 44.6 °F 38.4 °F 44.6 °F 100% 30.03 in 0.8 mi SE 12.7 mph - 0.00 in Rain Light Rain
2:19 PM 44.6 °F 38.8 °F 44.6 °F 100% 30.04 in 0.5 mi SE 11.5 mph - 0.00 in Fog Fog
2:53 PM 43.0 °F 37.7 °F 43.0 °F 100% 30.05 in 0.2 mi SE 9.2 mph - 0.00 in Fog Light Drizzle
3:03 PM 42.8 °F 38.0 °F 42.8 °F 100% 30.05 in 0.2 mi SSE 8.1 mph - 0.00 in Fog Light Drizzle
3:14 PM 42.8 °F 38.6 °F 42.8 °F 100% 30.06 in 0.2 mi SSE 6.9 mph - 0.00 in Fog Light Drizzle
3:31 PM 44.6 °F 42.2 °F 44.6 °F 100% 30.07 in 0.5 mi SSE 4.6 mph - 0.00 in Fog Light Drizzle
3:51 PM 44.6 °F 43.1 °F 44.6 °F 100% 30.07 in 0.8 mi South 3.5 mph - 0.00 in   Mist
3:53 PM 45.0 °F 43.5 °F 45.0 °F 100% 30.07 in 0.8 mi South 3.5 mph - 0.00 in   Mist
4:21 PM 44.6 °F - 44.6 °F 100% 30.08 in 1.5 mi Calm Calm - N/A   Overcast
4:53 PM 46.0 °F - 45.0 °F 96% 30.09 in 1.0 mi Calm Calm - N/A   Overcast
5:23 PM 46.4 °F - 44.6 °F 93% 30.09 in 1.2 mi Calm Calm - N/A   Overcast
5:50 PM 46.4 °F 45.2 °F 46.4 °F 100% 30.09 in 3.0 mi SE 3.5 mph - 0.01 in Rain Light Rain
5:53 PM 46.9 °F - 46.0 °F 97% 30.10 in 3.0 mi SE 3.5 mph - 0.01 in Rain Light Rain
6:27 PM 48.2 °F - 46.4 °F 93% 30.10 in 1.5 mi East 4.6 mph - 0.00 in   Overcast
6:53 PM 48.0 °F - 46.9 °F 96% 30.10 in 1.5 mi ESE 4.6 mph - 0.00 in   Overcast
7:48 PM 48.2 °F - 48.2 °F 100% 30.10 in 2.5 mi ESE 3.5 mph - N/A   Overcast
7:53 PM 48.9 °F - 48.0 °F 97% 30.11 in 5.0 mi Calm Calm - N/A   Overcast
8:51 PM 50.0 °F - 48.2 °F 94% 30.12 in 4.0 mi East 3.5 mph - 0.01 in Rain Light Rain
8:53 PM 50.0 °F - 48.9 °F 96% 30.12 in 4.0 mi East 4.6 mph - 0.01 in Rain Light Rain
9:53 PM 50.0 °F - 48.9 °F 96% 30.12 in 4.0 mi East 8.1 mph - 0.00 in   Overcast
10:05 PM 50.0 °F - 48.2 °F 94% 30.12 in 1.2 mi East 9.2 mph - N/A   Overcast
10:53 PM 48.9 °F - 48.0 °F 97% 30.14 in 1.2 mi East 6.9 mph - 0.01 in   Overcast
11:10 PM 48.2 °F - 48.2 °F 100% 30.14 in 1.0 mi East 6.9 mph - N/A   Mist
11:27 PM 48.2 °F - 48.2 °F 100% 30.15 in 1.2 mi ESE 4.6 mph - N/A   Overcast
11:53 PM 48.0 °F - 48.0 °F 100% 30.16 in 1.0 mi East 6.9 mph - 0.01 in   Overcast